N7MLR Weather Reports


time (UTC)temp
F
wind
direction
speed
knots
gust
knots
rain 1hr
in
rain 24hr
in
rain mn
in
humidity
%
barometer
mb
20260904094029 77 228 0.9 0.9 0.00 0.00 0.00 90 1013.2
20260904093526 78 210 0.0 0.0 0.00 0.00 0.00 88 1013.2
20260904093020 79 217 0.0 0.0 0.00 0.00 0.00 87 1012.9
20260904092516 79 206 0.9 0.9 0.00 0.00 0.00 86 1013.0
20260904092013 79 216 0.0 0.0 0.00 0.00 0.00 86 1013.1
20260904091508 79 210 0.0 0.0 0.00 0.00 0.00 86 1013.0
20260904091008 78 214 0.0 0.9 0.00 0.00 0.00 88 1012.8
20260904090503 77 213 0.0 0.9 0.00 0.00 0.00 90 1012.9
20260904090004 76 215 0.0 0.0 0.00 0.00 0.00 91 1013.0
20260904085459 77 215 0.0 0.0 0.00 0.00 0.00 91 1013.0
20260904084953 77 215 0.0 0.0 0.00 0.00 0.00 90 1013.0
20260904084449 77 214 0.0 0.0 0.00 0.00 0.00 90 1012.9
20260904083944 77 214 0.0 0.0 0.00 0.00 0.00 90 1012.7
20260904083441 77 213 0.0 0.0 0.00 0.00 0.00 90 1012.9
20260904082936 77 220 0.0 0.0 0.00 0.00 0.00 89 1012.9
20260904082431 77 217 0.0 0.0 0.00 0.00 0.00 89 1013.0
20260904081926 77 217 0.0 0.0 0.00 0.00 0.00 89 1012.9
20260904081421 78 216 0.0 0.0 0.00 0.00 0.00 88 1013.1
20260904080917 78 214 0.0 0.9 0.00 0.00 0.00 87 1013.1
20260904080413 79 218 0.0 0.9 0.00 0.00 0.00 86 1013.1
20260904075909 80 204 0.9 1.7 0.00 0.00 0.00 83 1013.2
20260904075404 80 205 0.9 0.9 0.00 0.00 0.00 84 1013.1
20260904074902 80 204 0.0 0.9 0.00 0.00 0.00 84 1013.4
20260904074358 80 204 0.9 0.9 0.00 0.00 0.00 84 1013.2
20260904073853 80 202 0.9 1.7 0.00 0.00 0.00 85 1013.2
20260904073349 78 212 0.9 0.9 0.00 0.00 0.00 87 1013.2
20260904072845 78 206 0.0 0.9 0.00 0.00 0.00 88 1013.3
20260904072345 78 210 0.9 0.9 0.00 0.00 0.00 88 1013.4
20260904071840 78 209 0.0 0.9 0.00 0.00 0.00 88 1013.3
20260904071336 78 208 0.0 0.0 0.00 0.00 0.00 87 1013.6
20260904070831 79 207 0.0 0.9 0.00 0.00 0.00 87 1013.6
20260904070329 79 221 0.9 0.9 0.00 0.00 0.00 87 1013.6
20260904065824 79 257 0.0 0.9 0.00 0.00 0.00 87 1013.6
20260904065320 79 211 0.9 0.9 0.00 0.00 0.00 86 1013.7
20260904064815 79 206 0.0 0.9 0.00 0.00 0.00 86 1013.7
20260904064311 79 215 0.9 0.9 0.00 0.00 0.00 85 1013.7
20260904063807 80 207 0.9 1.7 0.00 0.00 0.00 84 1013.7
20260904063303 81 208 1.7 2.6 0.00 0.00 0.00 82 1013.6
20260904062758 81 205 0.9 0.9 0.00 0.00 0.00 82 1013.8
20260904062254 81 207 0.0 0.0 0.00 0.00 0.00 82 1014.0
20260904061749 81 209 0.9 0.9 0.00 0.00 0.00 81 1013.6
20260904061245 81 210 0.0 0.9 0.00 0.00 0.00 81 1014.0
20260904060742 81 195 1.7 1.7 0.00 0.00 0.00 82 1013.8
20260904060237 79 203 0.0 0.9 0.00 0.00 0.00 84 1013.6
20260904055732 80 214 0.9 0.9 0.00 0.00 0.00 84 1014.0
20260904055227 79 217 2.6 4.3 0.00 0.00 0.00 83 1013.8
20260904054722 80 220 0.0 0.9 0.00 0.00 0.00 83 1013.8
20260904054219 80 234 0.9 0.9 0.00 0.00 0.00 83 1013.7
20260904053714 80 216 0.9 0.9 0.00 0.00 0.00 82 1013.5
20260904053213 80 208 0.9 1.7 0.00 0.00 0.00 82 1013.5
20260904052710 80 214 0.9 1.7 0.00 0.00 0.00 81 1013.6
20260904052205 80 207 2.6 4.3 0.00 0.00 0.00 81 1013.5
20260904051702 81 55 2.6 2.6 0.00 0.00 0.00 80 1013.4
20260904051156 82 131 0.9 1.7 0.00 0.00 0.00 78 1013.2
20260904050652 82 216 0.9 0.9 0.00 0.00 0.00 77 1013.4
20260904050148 83 101 2.6 2.6 0.00 0.00 0.00 76 1013.4
20260904045648 82 213 0.0 0.0 0.00 0.00 0.00 76 1013.3
20260904045148 82 226 0.9 0.9 0.00 0.00 0.00 76 1013.4
20260904044643 82 200 1.7 1.7 0.00 0.00 0.00 75 1013.6
20260904044140 82 271 1.7 1.7 0.00 0.00 0.00 75 1013.2
20260904043636 82 280 1.7 1.7 0.00 0.00 0.00 75 1013.2
20260904043131 82 216 0.9 1.7 0.00 0.00 0.00 76 1013.3
20260904042627 82 200 1.7 1.7 0.00 0.00 0.00 75 1013.3
20260904042123 82 219 1.7 2.6 0.00 0.00 0.00 74 1013.3
20260904041618 82 229 2.6 4.3 0.00 0.00 0.00 73 1013.5
20260904041114 82 195 0.9 1.7 0.00 0.00 0.00 72 1013.5
20260904040609 83 37 1.7 2.6 0.00 0.00 0.00 70 1013.6
20260904040106 83 231 1.7 1.7 0.00 0.00 0.00 69 1013.5
20260904035601 83 197 2.6 2.6 0.00 0.00 0.00 68 1013.4
20260904035101 85 340 1.7 2.6 0.00 0.00 0.00 66 1013.4
20260904034555 85 205 1.7 1.7 0.00 0.00 0.00 65 1013.4
20260904034050 85 29 1.7 1.7 0.00 0.00 0.00 65 1013.2
20260904033547 85 300 0.9 1.7 0.00 0.00 0.00 65 1012.9
20260904033044 84 301 1.7 1.7 0.00 0.00 0.00 67 1012.8
20260904032539 85 211 0.0 0.9 0.00 0.00 0.00 67 1012.7
20260904032038 83 204 1.7 1.7 0.00 0.00 0.00 69 1012.8
20260904031538 83 276 0.9 0.9 0.00 0.00 0.00 71 1012.4
20260904031034 83 294 0.9 2.6 0.00 0.00 0.00 72 1012.5
20260904030530 83 224 0.9 1.7 0.00 0.00 0.00 73 1012.5
20260904030025 83 232 0.0 0.0 0.00 0.00 0.00 73 1012.5
20260904025520 83 232 0.0 0.0 0.00 0.00 0.00 73 1012.4
20260904025015 84 238 0.9 0.9 0.00 0.00 0.00 73 1012.5
20260904024510 84 223 0.9 1.7 0.00 0.00 0.00 72 1012.3
20260904024006 84 235 0.9 1.7 0.00 0.00 0.00 71 1012.4
20260904023502 85 236 0.9 0.9 0.00 0.00 0.00 69 1012.5
20260904022956 85 234 2.6 4.3 0.00 0.00 0.00 70 1012.1
20260904022452 85 213 1.7 1.7 0.00 0.00 0.00 70 1012.2
20260904021949 86 212 0.0 0.9 0.00 0.00 0.00 70 1012.1
20260904021445 85 224 0.0 0.9 0.00 0.00 0.00 70 1012.0
20260904020944 85 223 0.0 0.9 0.00 0.00 0.00 70 1012.0
20260904020440 86 228 0.9 0.9 0.00 0.00 0.00 69 1012.0
20260904015938 86 226 0.9 0.9 0.00 0.00 0.00 69 1012.0
20260904015434 86 221 0.0 0.9 0.00 0.00 0.00 69 1011.7
20260904014932 85 221 0.9 1.7 0.00 0.00 0.00 70 1012.0
20260904014427 85 239 0.9 1.7 0.00 0.00 0.00 70 1012.0
20260904013923 85 253 2.6 4.3 0.00 0.00 0.00 70 1011.7
20260904013419 85 222 0.9 1.7 0.00 0.00 0.00 69 1011.8
20260904012914 85 243 0.9 1.7 0.00 0.00 0.00 69 1011.8
20260904012409 85 220 1.7 1.7 0.00 0.00 0.00 68 1011.5
20260904011908 86 313 2.6 2.6 0.00 0.00 0.00 67 1011.4
20260904011358 86 243 2.6 4.3 0.00 0.00 0.00 66 1011.6
20260904010853 86 243 4.3 7.8 0.00 0.00 0.00 66 1011.5
20260904010350 87 258 4.3 7.0 0.00 0.00 0.00 65 1011.3
20260904005844 87 207 0.9 0.9 0.00 0.00 0.00 64 1011.4
20260904005340 87 264 1.7 4.3 0.00 0.00 0.00 64 1011.3
20260904004835 87 308 2.6 6.1 0.00 0.00 0.00 63 1011.2
20260904004332 87 225 1.7 2.6 0.00 0.00 0.00 63 1011.3
20260904003832 88 264 5.2 8.7 0.00 0.00 0.00 62 1010.9
20260904003328 89 219 3.5 6.1 0.00 0.00 0.00 61 1010.9
20260904002823 89 344 1.7 4.3 0.00 0.00 0.00 61 1010.7
20260904002319 89 231 1.7 4.3 0.00 0.00 0.00 60 1010.9
20260904001818 90 229 2.6 4.3 0.00 0.00 0.00 59 1010.9
20260904001313 90 303 2.6 5.2 0.00 0.00 0.00 57 1011.1
20260904000808 90 268 2.6 4.3 0.00 0.00 0.00 57 1010.7
20260904000307 92 233 0.9 0.9 0.00 0.00 0.00 55 1010.8
20260903235802 93 308 2.6 4.3 0.00 0.00 0.00 52 1010.8
20260903235259 93 284 2.6 4.3 0.00 0.00 0.00 51 1010.5
20260903234757 93 208 1.7 2.6 0.00 0.00 0.00 50 1010.5
20260903234254 93 251 0.9 0.9 0.00 0.00 0.00 49 1010.5
20260903233750 93 231 1.7 2.6 0.00 0.00 0.00 49 1010.6
20260903233246 94 187 1.7 4.3 0.00 0.00 0.00 48 1010.7
20260903232744 94 227 0.0 0.9 0.00 0.00 0.00 49 1010.6
20260903232241 94 202 0.9 0.9 0.00 0.00 0.00 50 1010.5
20260903231739 94 213 0.9 1.7 0.00 0.00 0.00 50 1010.6
20260903231235 94 215 1.7 1.7 0.00 0.00 0.00 50 1010.2
20260903230730 94 214 0.9 0.9 0.00 0.00 0.00 50 1010.4
20260903230225 93 237 0.9 1.7 0.00 0.00 0.00 51 1010.2
20260903225722 93 214 0.9 1.7 0.00 0.00 0.00 50 1010.3
20260903225218 94 213 4.3 5.2 0.00 0.00 0.00 49 1010.2
20260903224714 93 206 0.9 1.7 0.00 0.00 0.00 50 1010.3
20260903224210 94 306 1.7 2.6 0.00 0.00 0.00 50 1010.3
20260903223705 94 217 1.7 4.3 0.00 0.00 0.00 50 1010.3
20260903223203 94 218 0.9 0.9 0.00 0.00 0.00 49 1010.1
20260903222703 95 77 1.7 1.7 0.00 0.00 0.00 49 1010.1
20260903222202 97 210 4.3 8.7 0.00 0.00 0.00 46 1010.1
20260903221658 98 187 2.6 2.6 0.00 0.00 0.00 44 1010.0
20260903221156 98 218 0.9 2.6 0.00 0.00 0.00 43 1010.1
20260903220655 99 233 2.6 2.6 0.00 0.00 0.00 41 1009.9
20260903220149 99 259 2.6 4.3 0.00 0.00 0.00 42 1009.9
20260903215648 100 218 0.9 0.9 0.00 0.00 0.00 42 1010.0
20260903215144 99 230 2.6 2.6 0.00 0.00 0.00 42 1009.8
20260903214642 98 66 3.5 6.1 0.00 0.00 0.00 43 1009.9
20260903214138 98 220 1.7 2.6 0.00 0.00 0.00 41 1010.0
20260903213633 98 234 0.9 1.7 0.00 0.00 0.00 43 1009.9
20260903213128 102 204 0.9 1.7 0.00 0.00 0.00 38 1010.3
20260903212618 100 202 0.9 0.9 0.00 0.00 0.00 40 1010.4
20260903212114 99 207 0.9 1.7 0.00 0.00 0.00 41 1010.0
20260903211609 101 187 1.7 1.7 0.00 0.00 0.00 40 1010.4
20260903211106 100 190 0.9 1.7 0.00 0.00 0.00 41 1010.6
20260903210600 99 318 2.6 2.6 0.00 0.00 0.00 42 1010.5
20260903210056 98 240 1.7 1.7 0.00 0.00 0.00 44 1010.5
20260903205555 100 259 1.7 1.7 0.00 0.00 0.00 41 1010.7
20260903205050 101 194 0.9 0.9 0.00 0.00 0.00 41 1010.8
20260903204546 100 209 0.9 0.9 0.00 0.00 0.00 42 1010.8
20260903204041 101 189 0.9 0.9 0.00 0.00 0.00 40 1011.1
20260903203536 102 181 0.9 1.7 0.00 0.00 0.00 38 1011.1
20260903203036 102 247 0.9 0.9 0.00 0.00 0.00 38 1010.9
20260903202532 102 185 0.9 0.9 0.00 0.00 0.00 38 1011.3
20260903202027 102 188 0.9 1.7 0.00 0.00 0.00 39 1011.2
20260903201522 102 232 2.6 2.6 0.00 0.00 0.00 40 1011.5
20260903201021 100 192 0.9 1.7 0.00 0.00 0.00 41 1011.1
20260903200516 100 194 0.9 0.9 0.00 0.00 0.00 42 1011.4
20260903200011 101 160 0.9 0.9 0.00 0.00 0.00 40 1011.5
20260903195507 99 179 0.9 1.7 0.00 0.00 0.00 42 1011.5
20260903195002 101 182 1.7 2.6 0.00 0.00 0.00 41 1011.3
20260903194457 101 190 0.9 0.9 0.00 0.00 0.00 40 1011.5
20260903193953 101 189 0.9 0.9 0.00 0.00 0.00 41 1011.6
20260903193449 100 154 1.7 1.7 0.00 0.00 0.00 42 1011.8
20260903192943 99 155 1.7 1.7 0.00 0.00 0.00 43 1011.6
20260903192441 100 205 0.9 1.7 0.00 0.00 0.00 40 1011.8
20260903191935 99 128 1.7 1.7 0.00 0.00 0.00 40 1012.0
20260903191432 99 118 2.6 2.6 0.00 0.00 0.00 43 1011.9
20260903190931 98 194 0.9 1.7 0.00 0.00 0.00 45 1012.2
20260903190425 98 191 0.9 1.7 0.00 0.00 0.00 45 1012.1
20260903185919 99 241 0.9 0.9 0.00 0.00 0.00 43 1012.4
20260903185415 98 164 1.7 1.7 0.00 0.00 0.00 45 1012.6
20260903184910 98 192 1.7 1.7 0.00 0.00 0.00 46 1012.6
20260903184407 97 169 1.7 1.7 0.00 0.00 0.00 46 1012.7
20260903183906 98 164 2.6 2.6 0.00 0.00 0.00 45 1012.6
20260903183401 96 193 1.7 1.7 0.00 0.00 0.00 48 1012.8
20260903182901 97 355 1.7 1.7 0.00 0.00 0.00 48 1012.9
20260903182400 96 214 2.6 2.6 0.00 0.00 0.00 48 1013.1
20260903181855 97 217 0.9 0.9 0.00 0.00 0.00 47 1013.3
20260903181349 97 185 1.7 1.7 0.00 0.00 0.00 47 1013.2
20260903180844 97 195 0.0 0.9 0.00 0.00 0.00 48 1013.1
20260903180343 97 196 0.9 0.9 0.00 0.00 0.00 47 1013.2
20260903175843 96 180 1.7 2.6 0.00 0.00 0.00 49 1013.3
20260903175337 96 42 2.6 4.3 0.00 0.00 0.00 48 1013.4
20260903174832 95 166 0.9 1.7 0.00 0.00 0.00 49 1013.5
20260903174327 95 214 2.6 2.6 0.00 0.00 0.00 49 1013.5
20260903173826 94 110 3.5 5.2 0.00 0.00 0.00 49 1013.5
20260903173322 94 188 0.9 1.7 0.00 0.00 0.00 51 1013.6
20260903172818 95 164 1.7 1.7 0.00 0.00 0.00 53 1013.6
20260903172312 93 193 0.0 0.9 0.00 0.00 0.00 55 1013.5
20260903171802 93 248 0.9 0.9 0.00 0.00 0.00 57 1013.7
20260903171258 93 174 0.9 1.7 0.00 0.00 0.00 55 1013.8
20260903170756 93 163 1.7 1.7 0.00 0.00 0.00 53 1013.8
20260903170252 93 220 1.7 2.6 0.00 0.00 0.00 55 1013.6
20260903165750 94 183 1.7 1.7 0.00 0.00 0.00 56 1013.6
20260903165245 93 206 1.7 1.7 0.00 0.00 0.00 56 1014.1
20260903164739 93 206 0.9 1.7 0.00 0.00 0.00 57 1014.1
20260903164236 93 156 0.9 1.7 0.00 0.00 0.00 57 1014.1
20260903163734 92 138 0.0 0.9 0.00 0.00 0.00 58 1014.2
20260903163231 92 202 0.9 0.9 0.00 0.00 0.00 59 1014.2
20260903162727 92 82 1.7 2.6 0.00 0.00 0.00 59 1014.3
20260903162223 93 200 1.7 1.7 0.00 0.00 0.00 60 1014.3
20260903161719 91 156 2.6 2.6 0.00 0.00 0.00 61 1014.1
20260903161214 92 198 2.6 2.6 0.00 0.00 0.00 59 1014.2
20260903160710 92 167 1.7 1.7 0.00 0.00 0.00 62 1014.1
20260903160208 90 169 1.7 2.6 0.00 0.00 0.00 62 1014.2
20260903155707 90 212 1.7 1.7 0.00 0.00 0.00 62 1014.3
20260903155202 90 89 1.7 1.7 0.00 0.00 0.00 63 1014.0
20260903154658 91 135 1.7 2.6 0.00 0.00 0.00 64 1014.1
20260903154154 88 163 1.7 1.7 0.00 0.00 0.00 66 1014.1
20260903153649 86 215 1.7 2.6 0.00 0.00 0.00 73 1014.1
20260903153145 86 209 0.9 1.7 0.00 0.00 0.00 73 1014.2
20260903152641 87 254 0.9 0.9 0.00 0.00 0.00 73 1014.2
20260903152137 86 271 1.7 1.7 0.00 0.00 0.00 73 1014.4
20260903151637 84 213 0.9 0.9 0.00 0.00 0.00 75 1014.2
20260903151131 84 185 0.9 1.7 0.00 0.00 0.00 77 1014.1
20260903150626 83 192 0.9 0.9 0.00 0.00 0.00 77 1014.1
20260903150121 83 192 1.7 2.6 0.00 0.00 0.00 78 1014.4
20260903145621 82 193 0.9 1.7 0.00 0.00 0.00 79 1014.3
20260903145116 82 200 0.9 1.7 0.00 0.00 0.00 79 1014.2
20260903144614 82 193 0.9 1.7 0.00 0.00 0.00 80 1014.3
20260903144111 82 192 0.9 0.9 0.00 0.00 0.00 80 1014.4
20260903143607 82 194 1.7 1.7 0.00 0.00 0.00 81 1014.2
20260903143102 82 162 1.7 1.7 0.00 0.00 0.00 80 1014.1
20260903142557 82 154 1.7 1.7 0.00 0.00 0.00 79 1014.4
20260903142054 82 171 0.9 1.7 0.00 0.00 0.00 81 1014.2
20260903141549 81 137 0.9 1.7 0.00 0.00 0.00 81 1014.3
20260903141044 81 110 2.6 2.6 0.00 0.00 0.00 81 1014.4
20260903140540 81 202 1.7 1.7 0.00 0.00 0.00 82 1014.3
20260903140035 80 153 1.7 1.7 0.00 0.00 0.00 83 1014.5
20260903135530 80 271 0.9 1.7 0.00 0.00 0.00 83 1014.3
20260903135025 81 213 1.7 1.7 0.00 0.00 0.00 83 1014.4
20260903134525 80 186 0.9 0.9 0.00 0.00 0.00 84 1014.4
20260903134021 80 180 0.9 0.9 0.00 0.00 0.00 84 1014.5
20260903133518 80 198 1.7 1.7 0.00 0.00 0.00 84 1014.2
20260903133014 80 216 1.7 1.7 0.00 0.00 0.00 85 1014.6
20260903132508 81 197 0.9 0.9 0.00 0.00 0.00 84 1014.6
20260903132004 81 179 2.6 2.6 0.00 0.00 0.00 83 1014.5
20260903131458 81 171 1.7 1.7 0.00 0.00 0.00 83 1014.5
20260903130956 81 200 0.9 0.9 0.00 0.00 0.00 83 1014.5
20260903130452 80 202 0.9 0.9 0.00 0.00 0.00 84 1014.4
20260903125951 79 232 0.9 0.9 0.00 0.00 0.00 88 1014.4
20260903125450 78 206 0.0 0.9 0.00 0.00 0.00 88 1014.2
20260903124945 78 158 0.9 1.7 0.00 0.00 0.00 88 1014.3
20260903124440 78 177 0.9 1.7 0.00 0.00 0.00 88 1014.3
20260903123939 78 194 0.9 0.9 0.00 0.00 0.00 88 1014.4
20260903123434 78 193 0.9 0.9 0.00 0.00 0.00 88 1014.1
20260903122932 78 191 0.9 0.9 0.00 0.00 0.00 88 1014.0
20260903122427 78 193 1.7 1.7 0.00 0.00 0.00 88 1013.7
20260903121926 78 192 0.9 0.9 0.00 0.00 0.00 88 1014.1
20260903121421 78 194 0.9 0.9 0.00 0.00 0.00 88 1013.8
20260903120918 78 201 0.9 0.9 0.00 0.00 0.00 88 1013.8
20260903120416 78 201 0.0 0.9 0.00 0.00 0.00 88 1014.0
20260903115915 78 201 0.0 0.0 0.00 0.00 0.00 88 1014.0
20260903115415 79 191 0.9 0.9 0.00 0.00 0.00 88 1013.7
20260903114915 79 183 1.7 1.7 0.00 0.00 0.00 87 1014.0
20260903114411 81 205 0.0 0.9 0.00 0.00 0.00 84 1013.7
20260903113906 81 200 0.0 0.9 0.00 0.00 0.00 85 1013.8
20260903113402 81 201 0.0 0.9 0.00 0.00 0.00 85 1013.7
20260903112857 81 200 0.0 0.9 0.00 0.00 0.00 84 1013.8
20260903112353 80 201 0.0 0.9 0.00 0.00 0.00 85 1013.7
20260903111851 80 193 0.0 0.9 0.00 0.00 0.00 86 1013.6
20260903111346 78 204 0.9 0.9 0.00 0.00 0.00 89 1013.7
20260903110843 78 207 0.0 0.0 0.00 0.00 0.00 90 1013.7
20260903110338 78 209 0.0 0.9 0.00 0.00 0.00 90 1013.7
20260903105832 78 208 0.9 0.9 0.00 0.00 0.00 90 1013.7
20260903105327 78 214 0.0 0.0 0.00 0.00 0.00 90 1013.6
20260903104827 78 198 0.0 0.0 0.00 0.00 0.00 90 1013.5
20260903104322 78 197 0.9 0.9 0.00 0.00 0.00 90 1013.7
20260903103819 78 201 1.7 1.7 0.00 0.00 0.00 91 1013.6
20260903103314 78 203 0.9 0.9 0.00 0.00 0.00 91 1013.5
20260903102810 78 227 0.9 1.7 0.00 0.00 0.00 91 1013.6
20260903102306 78 234 0.0 0.9 0.00 0.00 0.00 90 1013.4
20260903101803 78 224 0.9 0.9 0.00 0.00 0.00 90 1013.5
20260903101259 78 213 0.0 0.0 0.00 0.00 0.00 90 1013.2
20260903100754 78 192 1.7 1.7 0.00 0.00 0.00 90 1013.5
20260903100248 79 206 0.9 1.7 0.00 0.00 0.00 89 1013.5
20260903095745 79 212 0.9 0.9 0.00 0.00 0.00 89 1013.5
20260903095240 79 201 0.0 0.9 0.00 0.00 0.00 88 1013.5
20260903094735 80 202 0.0 0.0 0.00 0.00 0.00 85 1013.4
20260903094230 80 200 0.0 0.9 0.00 0.00 0.00 85 1013.6